Flag for Romania Weather past 2 weeks in Timișoara, Romania

Now
57 °F

Sunny.


Feels Like: 57 °F
Forecast: 47 / 77 °F
Wind: 2 mph from North

Location: Timisoara Airport

Current Time: May 29, 2015 at 10:02:12 AM

Latest Report: May 29, 2015 at 9:30 AM


Visibility: 10 mi

Pressure: 30.04 "Hg

Humidity: 72%

Dew point: 48 °F

Location of TimișoaraLocation

Historic Weather in Timișoara — Graph

°F

Timișoara temperature yesterday

Maximum temperature yesterday: 61 °F (at 1:30 PM)
Minimum temperature yesterday: 50 °F (at 3:00 AM)
Average temperature yesterday: 55 °F

Past Weeks' High & Low Weather Summary

 TemperatureHumidityPressure
High86 °F (May 19, 3:00 PM)100% (May 14, 9:00 AM)30.18 "Hg (May 14, 9:00 AM)
Low43 °F (May 29, 6:00 AM)19% (May 18, 6:00 PM)29.71 "Hg (May 26, 5:00 PM)
Average63 °F76%29.91 "Hg
* Reported May 14 9:00 AM — May 29 9:00 AM, Timișoara, Weather by CustomWeather, © 2015

Note: Actual official high and low records may vary slightly from our data, if they occured in-between our weather recording intervals... More about our weather records

Advertising

Timișoara weather history for previous 24 hours

 ConditionsComfort  
Time TempWeatherWind HumidityBarometerVisibility
9:00 AM
Fri, May 29
54 °FCool.2 mph88%30.04 "HgN/A
8:30 AM52 °FSunny.2 mph88%30.04 "Hg10 mi
8:00 AM48 °FPassing clouds.5 mph94%30.04 "HgN/A
7:30 AM46 °FSunny.3 mph100%30.04 "Hg10 mi
7:00 AM45 °FSunny.2 mph93%30.01 "Hg10 mi
6:30 AM43 °FClear.2 mph93%30.01 "Hg4 mi
6:00 AM43 °FFog.2 mph93%30.01 "Hg4 mi
5:30 AM45 °FClear.1 mph93%30.01 "Hg4 mi
5:00 AM45 °FClear.2 mph100%30.01 "Hg10 mi
4:30 AM45 °FClear.2 mph93%30.01 "Hg10 mi
4:00 AM45 °FClear.3 mph100%30.01 "Hg10 mi
3:30 AM46 °FClear.5 mph100%30.01 "Hg10 mi
3:00 AM48 °FClear.2 mph94%30.01 "Hg10 mi
2:30 AM48 °FClear.2 mph100%30.01 "Hg10 mi
1:00 AM50 °FClear.3 mph94%30.01 "Hg10 mi
12:30 AM52 °FClear.2 mph94%30.01 "Hg10 mi
12:00 AM52 °FClear.2 mph94%30.04 "Hg10 mi
11:30 PM
Thu, May 28
52 °FClear.2 mph94%30.01 "Hg10 mi
11:00 PM50 °FClear.1 mph94%30.01 "Hg10 mi
10:30 PM52 °FClear.3 mph94%30.01 "Hg10 mi
10:00 PM54 °FSunny.3 mph82%30.01 "Hg10 mi
9:30 PM55 °FSunny.3 mph77%30.01 "Hg10 mi
9:00 PM57 °FPassing clouds.5 mph72%30.01 "HgN/A
8:30 PM57 °FPassing clouds.6 mph72%30.01 "HgN/A
8:00 PM57 °FPassing clouds.5 mph72%30.01 "HgN/A
7:30 PM57 °FPassing clouds.5 mph67%30.01 "HgN/A
7:00 PM59 °FPassing clouds.6 mph59%30.01 "HgN/A
6:30 PM61 °FPassing clouds.6 mph48%30.01 "HgN/A
6:00 PM61 °FPassing clouds.5 mph55%30.01 "HgN/A
5:30 PM61 °FPassing clouds.5 mph55%30.01 "HgN/A
5:00 PM59 °FPassing clouds.3 mph63%30.01 "HgN/A
4:30 PM59 °FPassing clouds.5 mph63%30.01 "HgN/A
4:00 PM59 °FPassing clouds.8 mph63%30.01 "HgN/A
3:30 PM59 °FScattered clouds.6 mph59%30.01 "HgN/A
3:00 PM61 °FPassing clouds.8 mph59%30.01 "HgN/A
2:30 PM61 °FPassing clouds.8 mph55%30.01 "HgN/A
2:00 PM59 °FScattered clouds.8 mph68%30.01 "HgN/A
1:30 PM61 °FBroken clouds.9 mph55%30.01 "HgN/A
1:00 PM57 °FBroken clouds.8 mph67%30.01 "HgN/A
12:30 PM57 °FBroken clouds.10 mph67%30.04 "HgN/A
12:00 PM59 °FPartly sunny.9 mph68%30.01 "HgN/A
11:30 AM57 °FPartly sunny.8 mph72%30.04 "HgN/A
11:00 AM55 °FPartly sunny.9 mph72%30.01 "HgN/A
10:30 AM55 °FPartly sunny.10 mph77%30.01 "HgN/A
10:00 AM55 °FPartly sunny.10 mph77%30.01 "HgN/A
Weather by CustomWeather, © 2015

See weather overviewHow to use our weather pages